Location: *
(28.2408°N, 53.4600°E)
Time: 14:19:07
(UTC+00:00)

Daily predictions for brighter satellites

Satellite Brightness Start Highest point End
(mag) Time Altitude Azimuth Time Altitude Azimuth Time Altitude Azimuth
Cosmos 2151 Rocket 4.4 14:40:37 10° SSW 14:44:56 57° W 14:49:16 10° N
Cosmos 2219 3.3 14:40:08 10° S 14:45:48 65° ESE 14:51:29 10° NNE
Okean 2 4.3 14:42:24 10° NNW 14:46:26 56° W 14:50:27 10° S
GPS 2-14 Rocket1 4.2 14:43:23 10° WSW 14:46:37 25° S 14:49:48 10° SE
Cosmos 1371 Rocket 4.3 14:44:09 10° S 14:49:10 47° ESE 14:54:16 10° NNE
Cosmos 2297 Rocket 2.6 14:45:17 10° S 14:50:29 40° ESE 14:55:43 10° NE
Envisat 3.0 14:45:28 10° SSE 14:50:32 90° ENE 14:55:38 10° NNW
CZ-4 R/B 1.3 14:53:05 10° SSE 14:56:56 88° ENE 15:00:52 10° N
Lacrosse 5 3.5 14:54:36 10° SSE 14:57:24 15° ESE 14:59:57 11° E
CZ-2D R/B 4.2 14:54:30 10° SE 14:57:43 27° ENE 15:00:59 10° NNE
Delta 198 4.0 14:54:15 10° WSW 14:58:30 52° S 15:03:06 12° E
YAOGAN 6 2.5 14:55:34 10° SSE 14:59:11 79° E 15:02:52 10° N
Cosmos 2074 Rocket 4.0 14:56:19 10° N 15:02:33 80° E 15:08:44 10° S
CZ-3 Stage 3 2.8 14:58:36 10° SW 15:03:33 21° S 15:05:34 12° ESE
Aureole 1 Rocket 2.6 15:01:21 10° N 15:05:24 59° ENE 15:08:40 10° SSE
BREEZE-M DEB (TANK) 3.0 15:10:58 10° NNW 15:12:56 28° NE 15:14:14 20° E
COSMOS 2455 3.3 15:10:00 10° NNW 15:15:57 65° WSW 15:21:51 10° SSE
Okean 1 Rocket 3.6 15:11:51 10° SSW 15:16:07 63° W 15:20:26 10° N
CSL-04 Rocket 3.9 15:11:05 10° S 15:16:33 79° WSW 15:22:06 10° NNW
Lacrosse 5 rocket 3.2 15:15:53 10° WSW 15:18:57 26° NW 15:22:06 10° N
Meteor 1-15 Rocket 4.3 15:13:40 10° S 15:19:16 59° E 15:24:59 10° NNE
Cosmos 2251 Rocket 4.3 15:14:17 10° NNW 15:19:32 56° WSW 15:24:44 10° S
NOSS 3-4 (A) 4.4 15:13:01 10° NNW 15:19:52 42° ENE 15:25:41 16° ESE
NOSS 3-4 (C) 4.4 15:13:08 10° NNW 15:19:58 41° ENE 15:25:41 16° ESE
Cosmos 405 Rocket 2.8 15:17:47 10° SSE 15:21:17 44° E 15:24:48 10° NNE
Cosmos 1939 Rocket 2.8 15:20:01 10° SSE 15:23:46 54° ENE 15:27:31 10° N
ADEOS Rocket 4.2 15:18:49 10° NE 15:25:25 31° E 15:32:02 10° SSE
Cosmos 1025 Rocket 4.3 15:26:10 10° NNW 15:30:13 43° W 15:34:15 10° SSW
Cosmos 2154 Rocket 3.9 15:24:20 10° N 15:30:34 78° E 15:36:47 10° S
Cosmos 2237 Rocket 2.9 15:26:07 10° N 15:31:10 32° ENE 15:33:14 25° ESE
Cosmos 2333 Rocket 2.3 15:25:34 10° NNW 15:31:17 84° WSW 15:37:01 10° SSE
Ariane Rocket 2.9 15:27:51 10° SSE 15:32:51 70° ENE 15:37:54 10° N
NOSS 0 Rocket 4.1 15:27:26 10° N 15:33:30 53° ENE 15:38:04 18° SE
Cosmos 1980 4.0 15:35:59 10° N 15:41:21 43° ENE 15:43:23 31° ESE
GPS 2-17 Rocket1 4.2 15:39:42 10° WSW 15:43:28 27° S 15:44:37 24° SSE
YAOGAN 1 4.5 15:40:25 10° SSW 15:44:15 31° W 15:48:06 10° NW
Cosmos 2056 Rocket 4.4 15:42:24 10° SSW 15:47:40 52° WNW 15:52:57 10° N
HJ-1C 3.2 15:46:55 39° SSE 15:48:02 90° SSE 15:51:26 10° N
IUS-18 SRM-1 4.1 15:44:25 10° SW 15:49:26 20° S 15:49:50 20° SSE
Mugunghwa Rocket 3.9 15:43:31 10° WSW 15:49:51 74° S 15:52:28 37° E
Cosmos 1420 Rocket 3.9 15:45:33 10° S 15:50:45 65° ESE 15:56:01 10° NNE
CZ-2C R/B 3.6 15:49:08 10° N 15:53:34 82° WNW 15:57:59 10° SSW
Cosmos 407 Rocket 3.4 15:49:00 10° N 15:54:02 57° ENE 15:55:18 44° ESE
Cosmos 389 Rocket 2.7 15:54:44 10° N 15:57:32 57° N 15:57:32 57° N
IRS-1A Rocket 4.3 15:52:36 10° S 15:58:21 80° WSW 16:04:01 10° NNW
Cosmos 1892 Rocket 3.4 15:55:01 10° N 15:59:22 63° E 15:59:22 63° E
ASTEX 1 3.8 15:56:56 10° N 16:01:46 63° W 16:06:35 10° SSW
Cosmos 2219 Rocket 3.3 15:56:46 10° NW 16:02:00 42° WSW 16:07:13 10° S
ATLAS 2AS CENTAUR R/B 3.0 15:55:56 10° NNW 16:03:12 68° WSW 16:08:27 17° SSE
SL-16 R/B 3.8 15:59:42 10° NNE 16:02:16 19° NE 16:02:16 19° NE
GEOS 3 Rocket 4.4 16:07:49 33° NE 16:07:49 33° NE 16:11:48 10° N
Cosmos 2082 4.1 16:03:36 10° SSW 16:09:16 65° WNW 16:14:57 10° NNE
GPS 2-04 Rocket1 4.0 16:06:13 10° SW 16:08:16 29° SSW 16:08:16 29° SSW
Meteor 1-22 Rocket 4.3 16:04:17 10° S 16:10:15 67° E 16:16:19 10° NNE
Cosmos 1140 Rocket 3.8 16:05:24 10° N 16:09:40 48° NE 16:09:40 48° NE
Cosmos 1707 4.4 16:09:00 10° NNW 16:12:34 34° W 16:16:03 10° SSW
Meteor 2-5 Rocket 3.8 16:08:27 10° N 16:14:11 58° ENE 16:14:11 58° ENE
ARGOS 4.1 16:16:14 32° NNE 16:16:14 32° NNE 16:19:33 10° N
Aurora 2 Rocket 4.3 16:07:59 10° WSW 16:18:33 70° S 16:21:09 50° ESE
Okean 1-7 Rocket 3.9 16:16:31 10° NNW 16:20:56 65° W 16:21:14 63° WSW
deb Centaur AC-2 4.4 16:16:43 10° W 16:20:17 60° W 16:20:17 60° W
Cosmos 2227 Rocket 4.2 16:19:32 10° WSW 16:24:16 27° WNW 16:29:02 10° N
SL-4 R/B 4.0 16:23:33 10° SW 16:24:56 21° SW 16:24:56 21° SW
SPOT 3 Rocket 3.7 16:28:38 66° N 16:28:38 66° N 16:33:01 10° NNW
Lacrosse 5 2.5 16:34:56 10° SW 16:39:17 52° W 16:39:17 52° W
Cosmos 1452 Rocket 4.5 16:36:54 10° SW 16:41:53 45° WNW 16:46:55 10° N
H-2A R/B 3.7 16:59:47 27° NNW 16:59:47 27° NNW 17:02:02 10° NNW
ADEOS Rocket 4.5 17:03:39 10° N 17:10:46 45° WNW 17:18:01 10° SW
Cosmos 2237 Rocket 4.0 17:10:27 10° NW 17:14:58 25° WSW 17:15:07 25° WSW
FALCON 9 R/B 4.2 16:54:09 10° WNW 17:34:51 89° SSW 17:35:41 83° ESE
